Content
SEND FEEDBACK

Daily
Averages
Monthly
Summary
United States of America

WANETTE, OKLAHOMA


Home > North America > United States > Oklahoma
Elevation: 1020 feet     Latitude: 35 02N     Longitude: 097 02W

WEATHER
 
SELECT A DAY
Number of Records: 325,102;   Date Range: 3/30/01 - 7/26/14
 
SHARE

PRINT THIS DATA

[ ← Previous Day ]
WEATHER ALMANAC - JANUARY 31, 2013
[ Next Day → ]
[ °C ]   °F
Weather ElementAverageHighLow
Temperature42.3 °F62.6 °F (1:55 pm)30.2 °F (11:15 pm)
Dewpoint28.4 °F33.8 °F (2:15 pm)19.4 °F (11:55 pm)
Humidity60.6 %81 % (2:15 am)32 % (1:55 pm)
Barometer30.18 in30.44 in (9:35 pm)30.04 in (4:55 am)
Wind Speed10 mph20.7 mph (3:55 pm)
Wind Gust28.8 mph (3:35 pm)
Weather ElementAverage
Visibility10 mi
Wind DirectionSSE (148.9 °)

Weather ElementTotal
Precipitation0.07 in
Heating Degree Days18.6 (Base 65)
Averaged from 71 records on January 31, 2013
WEATHER CONDITIONS BREAKOUT
WIND DIRECTION BREAKOUT
WEATHER BY HOUR - JANUARY 31, 2013
[ °C ]   °F
Local TimeTemperatureDewpointHumidityBarometerVisibilityWind DirectionWind SpeedGust SpeedPrecipitationEventsConditions
12:35 AM35.6 °F28.4 °F75 %30.07 in10.0 miSSW (200°)5.8 mphClear
12:55 AM35.6 °F28.4 °F75 %30.06 in10.0 miSSW (210°)4.6 mphClear
1:15 AM33.8 °F26.6 °F75 %30.06 in10.0 miSSW (210°)5.8 mphClear
1:35 AM33.8 °F26.6 °F75 %30.06 in10.0 miSW (220°)5.8 mphClear
1:55 AM33.8 °F26.6 °F75 %30.05 in10.0 miSW (220°)4.6 mphClear
2:15 AM33.8 °F28.4 °F81 %30.06 in10.0 miSW (220°)4.6 mphClear
2:35 AM35.6 °F28.4 °F75 %30.06 in10.0 miSW (220°)4.6 mphClear
2:55 AM35.6 °F26.6 °F70 %30.06 in10.0 miWest (260°)3.5 mphClear
3:15 AM35.6 °F26.6 °F70 %30.06 in10.0 miWest (260°)4.6 mphClear
3:35 AM35.6 °F26.6 °F70 %30.06 in10.0 miWSW (250°)6.9 mphClear
3:55 AM35.6 °F26.6 °F70 %30.06 in10.0 miWSW (240°)5.8 mphClear
4:15 AM35.6 °F26.6 °F70 %30.05 in10.0 miWSW (250°)5.8 mph0.01 inClear
4:35 AM35.6 °F26.6 °F70 %30.05 in10.0 miSW (230°)3.5 mph0.01 inClear
4:55 AM35.6 °F24.8 °F65 %30.04 in10.0 miSW (230°)4.6 mph0.01 inClear
5:15 AM35.6 °F26.6 °F70 %30.05 in10.0 miSW (230°)3.5 mphClear
5:35 AM35.6 °F26.6 °F70 %30.05 in10.0 miSSW (210°)4.6 mphClear
5:55 AM35.6 °F26.6 °F70 %30.06 in10.0 miSouth (190°)5.8 mphClear
6:15 AM35.6 °F26.6 °F70 %30.06 in10.0 miSSW (200°)4.6 mphClear
6:35 AM33.8 °F26.6 °F75 %30.06 in10.0 miSSW (200°)3.5 mphClear
6:55 AM33.8 °F26.6 °F75 %30.07 in10.0 miSSW (210°)4.6 mphClear
7:15 AM33.8 °F26.6 °F75 %30.07 in10.0 miSSW (210°)4.6 mphClear
7:35 AM33.8 °F26.6 °F75 %30.09 in10.0 miSSW (200°)5.8 mphClear
7:55 AM33.8 °F26.6 °F75 %30.09 in10.0 miSSW (200°)5.8 mphClear
8:15 AM35.6 °F26.6 °F70 %30.09 in10.0 miSSW (210°)5.8 mphClear
8:35 AM37.4 °F28.4 °F70 %30.09 in10.0 miSSW (210°)6.9 mphClear
8:55 AM39.2 °F28.4 °F65 %30.10 in10.0 miSSW (210°)5.8 mphClear
9:15 AM41.0 °F28.4 °F61 %30.10 in10.0 miSSW (210°)6.9 mphClear
9:35 AM42.8 °F28.4 °F57 %30.11 in10.0 miSSW (210°)5.8 mphClear
9:55 AM46.4 °F28.4 °F50 %30.11 in10.0 miSW (230°)8.1 mphClear
10:15 AM51.8 °F30.2 °F44 %30.12 in10.0 miSW (220°)8.1 mphClear
10:35 AM51.8 °F30.2 °F44 %30.12 in10.0 miSW (220°)10.4 mph0.01 inClear
10:55 AM55.4 °F30.2 °F38 %30.10 in10.0 miSSW (200°)13.8 mph0.01 inClear
11:15 AM57.2 °F32.0 °F38 %30.09 in10.0 miSSW (210°)15.0 mphClear
11:35 AM59.0 °F32.0 °F36 %30.10 in10.0 miSW (220°)12.7 mphClear
11:55 AM60.8 °F32.0 °F34 %30.10 in10.0 miSW (230°)11.5 mphClear
12:15 PM60.8 °F32.0 °F34 %30.11 in10.0 miWSW (240°)11.5 mphClear
12:35 PM60.8 °F32.0 °F34 %30.10 in10.0 miWest (270°)11.5 mphClear
12:55 PM60.8 °F32.0 °F34 %30.09 in10.0 miWest (270°)11.5 mphClear
1:15 PM60.8 °F32.0 °F34 %30.09 in10.0 miWest (280°)10.4 mphClear
1:35 PM60.8 °F32.0 °F34 %30.09 in10.0 miWest (270°)9.2 mphClear
1:55 PM62.6 °F32.0 °F32 %30.10 in10.0 miNW (320°)10.4 mphClear
2:15 PM62.6 °F33.8 °F34 %30.11 in10.0 miNW (320°)12.7 mph20.7 mphClear
2:35 PM60.8 °F33.8 °F36 %30.11 in10.0 miNorth (10°)15.0 mph21.9 mphClear
2:55 PM60.8 °F33.8 °F36 %30.11 in10.0 miNorth (350°)15.0 mphClear
3:15 PM59.0 °F33.8 °F39 %30.12 in10.0 miNNE (30°)15.0 mph23.0 mphClear
3:35 PM55.4 °F32.0 °F41 %30.13 in10.0 miNorth (10°)17.3 mph28.8 mphClear
3:55 PM55.4 °F33.8 °F44 %30.16 in10.0 miNNE (20°)20.7 mph26.5 mphClear
4:15 PM53.6 °F33.8 °F47 %30.17 in10.0 miNNE (20°)19.6 mph25.3 mphClear
4:35 PM51.8 °F33.8 °F50 %30.20 in10.0 miNorth (10°)19.6 mph27.6 mph0.01 inClear
4:55 PM51.8 °F33.8 °F50 %30.22 in10.0 miNNE (20°)19.6 mph23.0 mph0.01 inClear
5:15 PM48.2 °F33.8 °F58 %30.24 in10.0 miNNE (20°)18.4 mph25.3 mphClear
5:35 PM44.6 °F32.0 °F61 %30.26 in10.0 miNNE (20°)13.8 mph24.2 mphClear
5:55 PM44.6 °F32.0 °F61 %30.28 in10.0 miNNE (20°)15.0 mph20.7 mphClear
6:15 PM42.8 °F32.0 °F66 %30.30 in10.0 miNorth (10°)17.3 mph21.9 mphClear
6:35 PM41.0 °F32.0 °F70 %30.33 in10.0 miNorth (10°)16.1 mph20.7 mphClear
6:55 PM37.4 °F30.2 °F75 %30.35 in10.0 miNorth (10°)15.0 mphClear
7:15 PM37.4 °F30.2 °F75 %30.36 in10.0 miNorth (10°)18.4 mphClear
7:35 PM35.6 °F30.2 °F81 %30.38 in10.0 miNNE (20°)15.0 mph18.4 mphClear
7:55 PM33.8 °F28.4 °F81 %30.39 in10.0 miNNE (20°)18.4 mph24.2 mphClear
8:15 PM33.8 °F28.4 °F81 %30.40 in10.0 miNNE (20°)12.7 mph19.6 mphClear
8:35 PM33.8 °F26.6 °F75 %30.41 in10.0 miNNE (20°)11.5 mphClear
8:55 PM32.0 °F23.0 °F69 %30.42 in10.0 miNNE (20°)10.4 mph21.9 mphClear
9:15 PM32.0 °F21.2 °F64 %30.43 in10.0 miNNE (20°)10.4 mphClear
9:35 PM32.0 °F23.0 °F69 %30.44 in10.0 miNNE (30°)10.4 mphClear
9:55 PM32.0 °F21.2 °F64 %30.43 in10.0 miNNE (30°)12.7 mph17.3 mphClear
10:15 PM32.0 °F21.2 °F64 %30.43 in10.0 miNNE (30°)10.4 mphClear
10:35 PM32.0 °F21.2 °F64 %30.43 in10.0 miNNE (20°)10.4 mphClear
10:55 PM32.0 °F21.2 °F64 %30.43 in10.0 miNNE (30°)10.4 mphClear
11:15 PM30.2 °F21.2 °F69 %30.41 in10.0 miNNE (30°)6.9 mphClear
11:35 PM30.2 °F21.2 °F69 %30.43 in10.0 miNE (50°)4.6 mphClear
11:55 PM30.2 °F19.4 °F64 %30.42 in10.0 miNE (40°)6.9 mphClear
Hourly data recorded from KSNL, located miles away from Wanette, Oklahoma







STORIES FROM OUR PARTNERS